This is the latest recevied weather packets stored in our database for station/object SP2WM. If no packets are shown the sender has not sent any weather packets the latest 10 day(s).
| Time | Temp. | Humidity | Pressure | Rain* | Wind** | Luminosity | Snow |
|---|---|---|---|---|---|---|---|
| 1777792234 | 21.67° C | 36% | 1014 hPa | 0 mm | - | - | - |
| 1777791638 | 21.11° C | 38% | 1014.2 hPa | 0 mm | - | - | - |
| 1777791039 | 20.56° C | 39% | 1014.2 hPa | 0 mm | - | - | - |
| 1777790438 | 20° C | 41% | 1014.2 hPa | 0 mm | - | - | - |
| 1777789838 | 19.44° C | 44% | 1014.2 hPa | 0 mm | - | - | - |
| 1777789237 | 18.89° C | 47% | 1014.3 hPa | 0 mm | - | - | - |
| 1777788622 | 17.78° C | 51% | 1014.4 hPa | 0 mm | - | - | - |
| 1777788022 | 16.67° C | 53% | 1014.3 hPa | 0 mm | - | - | - |
| 1777787421 | 16.11° C | 56% | 1014.5 hPa | 0 mm | - | - | - |
| 1777786821 | 15.56° C | 58% | 1014.5 hPa | 0 mm | - | - | - |
| 1777786225 | 15° C | 60% | 1014.5 hPa | 0 mm | - | - | - |
| 1777785628 | 14.44° C | 61% | 1014.5 hPa | 0 mm | - | - | - |
| 1777785027 | 13.89° C | 62% | 1014.5 hPa | 0 mm | - | - | - |
| 1777784428 | 13.33° C | 63% | 1014.5 hPa | 0 mm | - | - | - |
| 1777783833 | 12.78° C | 64% | 1014.5 hPa | 0 mm | - | - | - |
| 1777783233 | 12.22° C | 65% | 1014.5 hPa | 0 mm | - | - | - |
| 1777782632 | 12.22° C | 66% | 1014.5 hPa | 0 mm | - | - | - |
| 1777782034 | 11.67° C | 67% | 1014.5 hPa | 0 mm | - | - | - |
| 1777781437 | 11.11° C | 69% | 1014.5 hPa | 0 mm | - | - | - |
| 1777780837 | 11.11° C | 69% | 1014.6 hPa | 0 mm | - | - | - |
| 1777780240 | 11.11° C | 69% | 1014.4 hPa | 0 mm | - | - | - |
| 1777779639 | 11.11° C | 68% | 1014.5 hPa | 0 mm | - | - | - |
| 1777779024 | 10.56° C | 69% | 1014.4 hPa | 0 mm | - | - | - |
| 1777778425 | 10.56° C | 69% | 1014.4 hPa | 0 mm | - | - | - |
| 1777777824 | 10.56° C | 70% | 1014.5 hPa | 0 mm | - | - | - |
* Rain latest hour (hover to see other rain measurements)
** Current wind speed in m/s (hover to see current wind gust speed)